1514106000.28,28436,8.88,73226.8,-3.03,-3.51,-3.55,0,*5F
1514106001.53,28437,8.88,73236.8,-3.03,-3.55,-3.51,0,*5E
1514106002.77,28438,8.88,73224.0,-3.03,-3.55,-3.51,0,*51
1514106004.01,28439,8.88,73234.5,-3.03,-3.55,-3.43,0,*53
1514106005.29,28440,8.88,73222.3,-3.01,-3.51,-3.43,0,*5B
1514106006.53,28441,8.88,73224.8,-3.03,-3.51,-3.43,0,*58
1514106007.78,28442,8.88,73238.8,-3.03,-3.51,-3.55,0,*5C
1514106009.02,28443,8.88,73228.0,-3.03,-3.43,-3.43,0,*59
1514106010.29,28444,8.88,73232.5,-3.01,-3.51,-3.43,0,*5F
1514106011.51,28445,8.88,73230.8,-3.03,-3.39,-3.43,0,*52
1514106012.76,28446,8.88,73244.5,-3.03,-3.51,-3.43,0,*5F
1514106014.0,28447,8.88,73244.3,-3.03,-3.55,-3.51,0,*59
1514106015.25,28448,8.88,73266.8,-3.03,-3.55,-3.51,0,*56
1514106016.52,28449,8.88,73248.8,-3.01,-3.55,-3.51,0,*55
1514106017.79,28450,8.88,73230.0,-3.01,-3.51,-3.51,0,*59
1514106019.06,28451,8.88,73226.5,-3.01,-3.55,-3.43,0,*5F
1514106020.3,28452,8.88,73224.8,-3.03,-3.43,-3.43,0,*59
1514106021.55,28453,8.88,73212.3,-3.03,-3.55,-3.51,0,*5C
1514106022.79,28454,8.88,73206.8,-3.03,-3.51,-3.51,0,*5F
1514106024.04,28455,8.88,73216.3,-3.03,-3.55,-3.51,0,*5A
1514106025.28,28456,8.88,73238.8,-3.03,-3.55,-3.51,0,*59
1514106026.52,28457,8.88,73260.8,-3.03,-3.51,-3.51,0,*5C
1514106027.77,28458,8.88,73240.3,-3.03,-3.51,-3.51,0,*53
1514106029.02,28459,8.88,73230.0,-3.03,-3.51,-3.51,0,*52
1514106030.29,28460,8.88,73234.5,-3.01,-3.51,-3.51,0,*5A
1514106031.56,28461,8.88,73222.0,-3.01,-3.51,-3.51,0,*5B
1514106032.83,28462,8.88,73210.8,-3.01,-3.55,-3.51,0,*5C
1514106034.1,28463,8.88,73208.8,-3.01,-3.51,-3.43,0,*5A
1514106035.35,28464,8.88,73186.0,-3.03,-3.51,-3.51,0,*5C
1514106036.62,28465,8.88,73144.0,-3.01,-3.55,-3.43,0,*58
1514106037.87,28466,8.88,73120.8,-3.03,-3.51,-3.51,0,*5E
1514106039.14,28467,8.88,73122.0,-3.01,-3.51,-3.51,0,*5D
1514106040.41,28468,8.88,73134.8,-3.01,-3.51,-3.51,0,*52
1514106041.68,28469,8.88,73170.0,-3.01,-3.51,-3.55,0,*57
1514106042.95,28470,8.88,73172.3,-3.01,-3.55,-3.51,0,*5F
1514106044.22,28471,8.88,73176.3,-3.01,-3.55,-3.51,0,*5E
1514106045.46,28472,8.88,73160.5,-3.03,-3.55,-3.55,0,*5B
1514106046.7,28473,8.88,73172.5,-3.03,-3.51,-3.51,0,*5A
1514106047.95,28474,8.88,73182.8,-3.03,-3.55,-3.51,0,*59
1514106049.19,28475,8.88,73208.8,-3.03,-3.51,-3.51,0,*5C
1514106050.43,28476,8.88,73208.8,-3.03,-3.51,-3.55,0,*5B
1514106051.68,28477,8.88,73204.5,-3.03,-3.51,-3.51,0,*5E
1514106052.93,28478,8.88,73188.3,-3.03,-3.51,-3.51,0,*51
1514106054.2,28479,8.88,73176.8,-3.01,-3.55,-3.51,0,*56
1514106055.47,28480,8.88,73192.0,-3.01,-3.51,-3.51,0,*54
1514106056.74,28481,8.88,73176.8,-3.01,-3.55,-3.51,0,*51
1514106057.98,28482,8.88,73174.5,-3.03,-3.55,-3.55,0,*54
1514106059.25,28483,8.88,73190.5,-3.01,-3.55,-3.51,0,*53
1514106060.51,28484,8.88,73154.0,-3.01,-3.55,-3.55,0,*50
1514106061.75,28485,8.88,73144.8,-3.03,-3.55,-3.51,0,*57
1514106063.02,28486,8.88,73126.8,-3.01,-3.51,-3.55,0,*56
1514106064.29,28487,8.88,73126.5,-3.01,-3.55,-3.51,0,*57
1514106065.56,28488,8.88,73142.5,-3.01,-3.55,-3.55,0,*5C
1514106066.8,28489,8.88,73068.3,-3.03,-3.55,-3.51,0,*5B
1514106068.07,28490,8.88,73080.0,-3.01,-3.55,-3.51,0,*51
1514106069.31,28491,8.88,73134.5,-3.03,-3.55,-3.51,0,*52
1514106070.59,28492,8.88,73138.8,-3.01,-3.51,-3.51,0,*57
1514106071.85,28493,8.88,73156.8,-3.01,-3.55,-3.55,0,*56
1514106073.12,28494,8.88,73182.0,-3.01,-3.51,-3.51,0,*51
1514106074.39,28495,8.88,73104.3,-3.01,-3.55,-3.51,0,*54
1514106075.63,28496,8.88,73166.8,-3.03,-3.55,-3.51,0,*55
1514106076.88,28497,8.88,73204.0,-3.03,-3.51,-3.55,0,*54
1514106078.15,28498,8.88,73184.8,-3.01,-3.55,-3.51,0,*59
1514106079.42,28499,8.88,73128.5,-3.01,-3.51,-3.51,0,*5C
1514106080.69,28500,8.88,73132.0,-3.01,-3.51,-3.55,0,*59
1514106081.96,28501,8.88,73144.3,-3.01,-3.51,-3.55,0,*58
1514106083.23,28502,8.88,73126.5,-3.01,-3.55,-3.51,0,*5B
1514106084.5,28503,8.88,73152.0,-3.01,-3.55,-3.51,0,*5A
1514106085.76,28504,8.88,73100.0,-3.01,-3.55,-3.55,0,*59
1514106087.03,28505,8.88,73128.8,-3.01,-3.55,-3.51,0,*5C
1514106088.27,28506,8.88,73160.5,-3.03,-3.55,-3.51,0,*5D
1514106089.54,28507,8.88,73186.8,-3.01,-3.55,-3.55,0,*5A
1514106090.8,28508,8.88,73166.8,-3.01,-3.55,-3.55,0,*55
1514106092.05,28509,8.88,73204.3,-3.03,-3.51,-3.51,0,*56
1514106093.29,28510,8.88,73198.0,-3.03,-3.55,-3.51,0,*5A
1514106094.56,28511,8.88,73192.8,-3.01,-3.55,-3.51,0,*59
1514106095.8,28512,8.88,73192.5,-3.03,-3.55,-3.55,0,*5C
1514106097.05,28513,8.88,73168.0,-3.03,-3.51,-3.55,0,*59
1514106098.31,28514,8.88,73194.8,-3.01,-3.51,-3.55,0,*5C
1514106099.58,28515,8.88,73208.8,-3.01,-3.55,-3.55,0,*59
1514106100.82,28516,8.88,73186.0,-3.03,-3.51,-3.55,0,*5C
1514106102.09,28517,8.88,73146.3,-3.01,-3.51,-3.55,0,*5F
1514106103.36,28518,8.88,73150.0,-3.01,-3.51,-3.51,0,*54
1514106104.63,28519,8.88,73186.8,-3.01,-3.55,-3.55,0,*55
1514106105.9,28520,8.88,73176.8,-3.01,-3.55,-3.55,0,*5F
1514106107.14,28521,8.88,73154.5,-3.03,-3.51,-3.55,0,*58
1514106108.41,28522,8.88,73148.0,-3.01,-3.51,-3.55,0,*59
1514106109.65,28523,8.88,73150.5,-3.03,-3.55,-3.51,0,*5A
1514106110.92,28524,8.88,73178.3,-3.01,-3.55,-3.51,0,*5F
1514106112.16,28525,8.88,73196.5,-3.03,-3.55,-3.55,0,*58
1514106113.43,28526,8.88,73246.0,-3.01,-3.55,-3.51,0,*5D
1514106114.68,28527,8.88,73234.3,-3.03,-3.51,-3.51,0,*5A
1514106115.92,28528,8.88,73222.5,-3.03,-3.55,-3.51,0,*51
1514106117.16,28529,8.88,73202.0,-3.03,-3.55,-3.51,0,*50
1514106118.43,28530,8.88,73186.3,-3.01,-3.55,-3.55,0,*5E
1514106119.67,28531,8.88,73196.0,-3.03,-3.55,-3.55,0,*5D
1514106120.91,28532,8.88,73210.8,-3.03,-3.51,-3.51,0,*5E
1514106122.18,28533,8.88,73212.0,-3.01,-3.51,-3.55,0,*59
1514106123.45,28534,8.88,73206.8,-3.01,-3.55,-3.55,0,*5A
1514106124.69,28535,8.88,73208.8,-3.03,-3.55,-3.51,0,*5D
1514106125.96,28536,8.88,73196.3,-3.01,-3.55,-3.51,0,*5C
1514106127.2,28537,8.88,73178.3,-3.03,-3.55,-3.55,0,*5B
1514106128.47,28538,8.88,73172.8,-3.01,-3.55,-3.55,0,*56
1514106129.71,28539,8.88,73230.3,-3.03,-3.51,-3.55,0,*51
1514106130.95,28540,8.88,73210.5,-3.03,-3.55,-3.55,0,*5B
1514106132.19,28541,8.88,73212.8,-3.03,-3.55,-3.55,0,*5A
1514106133.45,28542,8.88,73226.3,-3.01,-3.55,-3.55,0,*5B
1514106134.72,28543,8.88,73254.3,-3.01,-3.51,-3.55,0,*5E
1514106135.96,28544,8.88,73216.8,-3.03,-3.55,-3.55,0,*5F
1514106137.23,28545,8.88,73234.8,-3.01,-3.55,-3.51,0,*58
1514106138.5,28546,8.88,73258.0,-3.01,-3.55,-3.55,0,*5F
1514106139.74,28547,8.88,73272.0,-3.03,-3.55,-3.55,0,*5C
1514106141.0,28548,8.88,73250.3,-3.01,-3.55,-3.55,0,*51
1514106142.27,28549,8.88,73256.5,-3.01,-3.55,-3.55,0,*50
1514106143.51,28550,8.88,73242.8,-3.03,-3.55,-3.55,0,*5A
1514106144.78,28551,8.88,73266.0,-3.01,-3.51,-3.55,0,*5D
1514106146.02,28552,8.88,73286.5,-3.03,-3.55,-3.51,0,*5C
1514106147.29,28553,8.88,73256.8,-3.01,-3.55,-3.55,0,*5B
1514106148.55,28554,8.88,73248.3,-3.01,-3.55,-3.55,0,*5C
1514106149.82,28555,8.88,73204.3,-3.01,-3.51,-3.51,0,*5D
1514106151.09,28556,8.88,73168.0,-3.01,-3.55,-3.51,0,*5A
1514106152.36,28557,8.88,73152.3,-3.01,-3.51,-3.51,0,*5F
1514106153.61,28558,8.88,73150.8,-3.03,-3.51,-3.55,0,*56
1514106154.88,28559,8.88,73134.8,-3.01,-3.63,-3.55,0,*54
1514106156.12,28560,8.88,73162.0,-3.03,-3.63,-3.51,0,*58
1514106157.39,28561,8.88,73144.0,-3.01,-3.55,-3.55,0,*5A
1514106158.63,28562,8.88,73160.5,-3.03,-3.51,-3.55,0,*5F
1514106159.88,28563,8.88,73170.8,-3.03,-3.63,-3.55,0,*5F
1514106161.15,28564,8.88,73162.8,-3.01,-3.51,-3.55,0,*5B
1514106162.41,28565,8.88,73186.5,-3.01,-3.55,-3.55,0,*5E
1514106163.68,28566,8.88,73194.3,-3.01,-3.55,-3.51,0,*59
1514106164.95,28567,8.88,73206.0,-3.01,-3.55,-3.55,0,*5C
1514106166.19,28568,8.88,73202.0,-3.03,-3.55,-3.55,0,*51
1514106167.45,28569,8.88,73190.5,-3.01,-3.55,-3.55,0,*52
1514106168.69,28570,8.88,73172.0,-3.03,-3.55,-3.51,0,*5C
1514106169.94,28571,8.88,73164.0,-3.03,-3.55,-3.51,0,*5D
1514106171.2,28572,8.88,73152.8,-3.01,-3.55,-3.55,0,*58
1514106172.47,28573,8.88,73108.0,-3.01,-3.51,-3.55,0,*5D
1514106173.74,28574,8.88,73094.8,-3.01,-3.55,-3.55,0,*5E
1514106175.0,28575,8.88,73086.0,-3.01,-3.55,-3.55,0,*5F
1514106176.24,28576,8.88,73086.5,-3.03,-3.55,-3.55,0,*5E
1514106177.51,28577,8.88,73082.8,-3.01,-3.55,-3.51,0,*59
1514106178.78,28578,8.88,73088.5,-3.01,-3.55,-3.51,0,*56
1514106180.05,28579,8.88,73066.3,-3.01,-3.55,-3.55,0,*53
1514106181.31,28580,8.88,73088.0,-3.01,-3.55,-3.55,0,*55
1514106182.58,28581,8.88,73102.0,-3.01,-3.55,-3.51,0,*50
1514106183.82,28582,8.88,73130.0,-3.03,-3.55,-3.51,0,*51
1514106185.09,28583,8.88,73100.8,-3.01,-3.55,-3.51,0,*52
1514106186.36,28584,8.88,73098.3,-3.01,-3.55,-3.51,0,*55
1514106187.63,28585,8.88,73082.3,-3.01,-3.55,-3.51,0,*54
1514106188.9,28586,8.88,73086.0,-3.01,-3.51,-3.51,0,*53
1514106190.15,28587,8.88,73084.3,-3.03,-3.55,-3.51,0,*54
1514106191.41,28588,8.88,73100.3,-3.01,-3.55,-3.51,0,*59
1514106192.68,28589,8.88,73120.8,-3.01,-3.55,-3.51,0,*58
1514106193.96,28590,8.88,73116.8,-3.01,-3.51,-3.51,0,*54
1514106195.22,28591,8.88,73114.0,-3.01,-3.55,-3.51,0,*51
1514106196.5,28592,8.88,73118.0,-3.01,-3.51,-3.51,0,*56
1514106197.77,28593,8.88,73112.8,-3.01,-3.51,-3.51,0,*57
1514106199.02,28594,8.88,73134.3,-3.03,-3.51,-3.51,0,*52
1514106200.29,28595,8.88,73150.8,-3.01,-3.51,-3.43,0,*52
1514106201.56,28596,8.88,73136.3,-3.01,-3.51,-3.55,0,*56
1514106202.83,28597,8.94,73080.0,-3.01,-3.55,-3.51,0,*57
1514106204.1,28598,8.88,73104.5,-3.01,-3.51,-3.51,0,*5C
1514106205.37,28599,8.88,73134.3,-3.01,-3.51,-3.43,0,*5E
1514106206.64,28600,8.88,73142.0,-3.01,-3.51,-3.55,0,*5A
1514106207.91,28601,8.88,73154.3,-3.01,-3.51,-3.55,0,*5B
1514106209.18,28602,8.88,73148.8,-3.01,-3.51,-3.51,0,*5C
1514106210.45,28603,8.88,73152.3,-3.01,-3.51,-3.51,0,*5D
1514106211.72,28604,8.88,73152.0,-3.01,-3.55,-3.51,0,*5E
1514106212.99,28605,8.88,73164.8,-3.01,-3.55,-3.51,0,*5F
1514106214.26,28606,8.88,73164.3,-3.01,-3.51,-3.55,0,*5C
1514106215.53,28607,8.88,73158.0,-3.01,-3.55,-3.55,0,*59
1514106216.8,28608,8.88,73160.0,-3.01,-3.51,-3.51,0,*56
1514106218.07,28609,8.88,73180.3,-3.01,-3.51,-3.51,0,*57
1514106219.34,28610,8.88,73174.0,-3.01,-3.55,-3.51,0,*5B
1514106220.61,28611,8.88,73142.3,-3.01,-3.55,-3.43,0,*59
1514106221.88,28612,8.88,73160.8,-3.01,-3.51,-3.51,0,*5D
1514106223.15,28613,8.88,73162.8,-3.01,-3.51,-3.51,0,*5C
1514106224.42,28614,8.88,73208.0,-3.01,-3.55,-3.55,0,*5B
1514106225.69,28615,8.88,73216.0,-3.01,-3.51,-3.51,0,*5A
1514106226.96,28616,8.88,73214.3,-3.01,-3.55,-3.51,0,*5D
1514106228.23,28617,8.88,73222.3,-3.01,-3.55,-3.55,0,*58
1514106229.49,28618,8.88,73198.8,-3.01,-3.55,-3.55,0,*57
1514106230.76,28619,8.88,73214.5,-3.01,-3.55,-3.51,0,*52
1514106232.03,28620,8.88,73210.0,-3.01,-3.51,-3.55,0,*58
1514106233.3,28621,8.88,73208.5,-3.01,-3.55,-3.51,0,*59
1514106234.57,28622,8.88,73208.3,-3.01,-3.55,-3.55,0,*5E
1514106235.83,28623,8.88,73208.3,-3.01,-3.55,-3.55,0,*5F
1514106237.1,28624,8.88,73212.8,-3.01,-3.51,-3.55,0,*5C
1514106238.37,28625,8.88,73212.5,-3.01,-3.51,-3.55,0,*5D
1514106239.63,28626,8.88,73194.3,-3.01,-3.55,-3.55,0,*5A
1514106240.9,28627,8.88,73176.3,-3.01,-3.55,-3.55,0,*5B
1514106242.17,28628,8.88,73160.0,-3.01,-3.51,-3.51,0,*54
1514106243.44,28629,8.88,73194.0,-3.01,-3.55,-3.51,0,*51
1514106244.68,28630,8.88,73198.3,-3.03,-3.55,-3.51,0,*5B
1514106245.95,28631,8.88,73202.0,-3.01,-3.55,-3.51,0,*58
1514106247.22,28632,8.88,73196.0,-3.01,-3.55,-3.51,0,*5B
1514106248.49,28633,8.88,73196.5,-3.01,-3.55,-3.55,0,*5E
1514106249.73,28634,8.88,73196.0,-3.03,-3.55,-3.51,0,*5F
1514106251.0,28635,8.88,73182.3,-3.01,-3.51,-3.55,0,*5C
1514106252.24,28636,8.88,73188.5,-3.03,-3.51,-3.55,0,*5D
1514106253.51,28637,8.88,73168.0,-3.01,-3.55,-3.55,0,*5A
1514106254.78,28638,8.88,73150.8,-3.01,-3.51,-3.51,0,*55
1514106256.03,28639,8.88,73174.0,-2.99,-3.47,-3.51,0,*53
1514106257.28,28640,8.88,73138.0,-2.99,-3.51,-3.59,0,*52
1514106258.52,28641,8.88,73140.8,-3.03,-3.55,-3.51,0,*5D
1514106259.79,28642,8.88,73162.8,-3.01,-3.51,-3.51,0,*58
1514106261.06,28643,8.88,73192.5,-3.01,-3.55,-3.51,0,*5D
1514106262.33,28644,8.88,73156.3,-3.01,-3.51,-3.51,0,*5E
1514106263.6,28645,8.88,73186.5,-3.01,-3.51,-3.51,0,*5F
1514106264.88,28646,8.88,73180.3,-3.01,-3.51,-3.51,0,*5C
1514106266.12,28647,8.88,73160.3,-2.99,-3.51,-3.47,0,*5A
1514106267.36,28648,8.88,73160.3,-2.99,-3.47,-3.47,0,*52
1514106268.61,28649,8.88,73178.0,-2.99,-3.51,-3.51,0,*53
1514106269.85,28650,8.88,73178.8,-2.99,-3.51,-3.47,0,*5C
1514106271.12,28651,8.88,73160.3,-3.01,-3.55,-3.51,0,*5E
1514106272.39,28652,8.88,73156.5,-3.01,-3.55,-3.51,0,*5D
1514106273.63,28653,8.88,73170.3,-2.99,-3.47,-3.47,0,*58
1514106274.87,28654,8.88,73178.3,-2.99,-3.47,-3.47,0,*5F
1514106276.14,28655,8.88,73168.0,-3.01,-3.51,-3.51,0,*5E
1514106277.41,28656,8.88,73206.8,-3.01,-3.55,-3.51,0,*59
1514106278.66,28657,8.88,73218.0,-2.99,-3.51,-3.51,0,*5C
1514106279.9,28658,8.88,73202.5,-2.99,-3.51,-3.47,0,*54
1514106281.14,28659,8.88,73208.8,-2.99,-3.47,-3.47,0,*52
1514106282.39,28660,8.88,73224.3,-2.99,-3.51,-3.47,0,*5F
1514106283.63,28661,8.88,73230.3,-2.99,-3.51,-3.51,0,*59
1514106284.88,28662,8.88,73226.0,-2.99,-3.47,-3.51,0,*5D
1514106286.15,28663,8.88,73196.5,-3.01,-3.51,-3.51,0,*5B
1514106287.39,28664,8.88,73200.5,-2.99,-3.47,-3.47,0,*5C
1514106288.63,28665,8.88,73208.0,-2.99,-3.51,-3.47,0,*5A
1514106289.88,28666,8.88,73194.8,-2.99,-3.47,-3.51,0,*59
1514106291.12,28667,8.88,73142.0,-2.99,-3.51,-3.51,0,*5F
1514106292.37,28668,8.88,73128.8,-2.99,-3.51,-3.51,0,*50
1514106293.64,28669,8.88,73116.0,-3.01,-3.51,-3.51,0,*51
1514106294.89,28670,8.88,73098.8,-2.99,-3.47,-3.47,0,*59
1514106296.13,28671,8.88,73154.5,-2.99,-3.51,-3.47,0,*5F
1514106297.37,28672,8.88,73164.8,-2.99,-3.47,-3.47,0,*5B
1514106298.62,28673,8.88,73172.0,-2.99,-3.51,-3.51,0,*5A
1514106299.86,28674,8.94,73182.3,-3.03,-3.55,-3.51,0,*5B
1514106301.1,28675,8.88,73190.3,-2.99,-3.51,-3.47,0,*5B
1514106302.34,28676,8.88,73200.0,-2.99,-3.51,-3.47,0,*58
1514106303.61,28677,8.88,73176.3,-2.97,-3.51,-3.47,0,*57
1514106304.86,28678,8.88,73176.3,-2.99,-3.51,-3.51,0,*51
1514106306.1,28679,8.88,73202.5,-2.99,-3.51,-3.51,0,*50
1514106307.37,28680,8.88,73210.0,-3.01,-3.51,-3.55,0,*52
1514106308.62,28681,8.88,73136.5,-2.99,-3.51,-3.51,0,*57
1514106309.85,28682,8.88,73142.0,-3.03,-3.55,-3.55,0,*56
1514106311.12,28683,8.88,73158.3,-3.01,-3.55,-3.55,0,*55
1514106312.39,28684,8.88,73150.3,-3.01,-3.55,-3.55,0,*52
1514106313.65,28685,8.88,73124.5,-3.01,-3.55,-3.55,0,*53
1514106314.92,28686,8.88,73096.5,-3.01,-3.55,-3.55,0,*50
1514106316.18,28687,8.88,73098.8,-3.01,-3.55,-3.55,0,*51
1514106317.43,28688,8.88,73178.8,-2.99,-3.51,-3.51,0,*5E
1514106318.65,28689,8.88,73198.5,-2.99,-3.51,-3.39,0,*51
1514106319.9,28690,8.88,73212.3,-2.99,-3.51,-3.51,0,*57
1514106321.14,28691,8.88,73224.0,-2.99,-3.51,-3.51,0,*56
1514106322.39,28692,8.88,73168.0,-2.99,-3.51,-3.51,0,*55
1514106323.63,28693,8.88,73172.3,-2.99,-3.51,-3.51,0,*54
1514106324.88,28694,8.88,73184.8,-2.99,-3.47,-3.51,0,*54
1514106326.13,28695,8.88,73212.8,-2.99,-3.51,-3.51,0,*52
1514106327.37,28696,8.88,73172.5,-2.99,-3.47,-3.47,0,*51
1514106328.61,28697,8.88,73196.8,-2.99,-3.59,-3.47,0,*5F
1514106329.85,28698,8.88,73184.8,-2.99,-3.47,-3.47,0,*5F
1514106331.1,28699,8.88,73196.5,-2.99,-3.51,-3.51,0,*5E
1514106332.34,28700,8.88,73204.0,-2.99,-3.47,-3.47,0,*5F
1514106333.61,28701,8.88,73218.0,-3.01,-3.55,-3.51,0,*5A
1514106334.85,28702,8.88,73216.5,-2.99,-3.51,-3.47,0,*5A
1514106336.1,28703,8.88,73226.0,-2.99,-3.51,-3.51,0,*5C
1514106337.34,28704,8.88,73236.3,-2.99,-3.51,-3.51,0,*5B
1514106338.59,28705,8.94,73248.8,-2.99,-3.59,-3.59,0,*5A
1514106339.84,28706,8.88,73222.5,-2.99,-3.51,-3.47,0,*5E
1514106341.08,28707,8.94,73214.3,-2.99,-3.51,-3.47,0,*5F
1514106342.32,28708,8.88,73220.3,-2.99,-3.51,-3.47,0,*50
1514106343.57,28709,8.88,73216.3,-2.99,-3.51,-3.51,0,*56
1514106344.81,28710,8.88,73232.5,-2.99,-3.47,-3.51,0,*59
1514106346.06,28711,8.88,73238.5,-2.99,-3.47,-3.51,0,*58
1514106347.3,28712,8.88,73114.8,-2.99,-3.51,-3.47,0,*5B
1514106348.54,28713,8.88,73198.8,-2.99,-3.51,-3.51,0,*5D
1514106349.79,28714,8.88,73234.3,-2.99,-3.47,-3.47,0,*5A
1514106351.03,28715,8.88,73242.8,-2.99,-3.47,-3.51,0,*5C
1514106352.28,28716,8.88,73252.0,-2.99,-3.51,-3.47,0,*5F
1514106353.52,28717,8.88,73260.0,-2.99,-3.51,-3.51,0,*59
1514106354.77,28718,8.94,73254.5,-2.99,-3.51,-3.51,0,*56
1514106356.01,28719,8.88,73236.8,-2.99,-3.51,-3.51,0,*57
1514106357.26,28720,8.88,73226.8,-2.99,-3.47,-3.59,0,*52
1514106358.5,28721,8.94,73220.5,-2.99,-3.51,-3.47,0,*5B
1514106359.75,28722,8.88,73226.5,-2.99,-3.47,-3.51,0,*58
1514106360.99,28723,8.94,73242.5,-2.99,-3.51,-3.51,0,*5E
1514106362.26,28724,8.88,73224.5,-3.01,-3.55,-3.55,0,*59
1514106363.5,28725,8.88,73226.0,-2.99,-3.59,-3.47,0,*57
1514106364.77,28726,8.88,73214.8,-3.01,-3.55,-3.55,0,*5B
1514106366.04,28727,8.88,73194.5,-3.01,-3.63,-3.55,0,*5F
1514106367.3,28728,8.88,73168.5,-3.01,-3.55,-3.55,0,*55
1514106368.55,28729,8.94,73152.3,-2.99,-3.51,-3.51,0,*54
1514106369.82,28730,8.88,73166.5,-3.01,-3.51,-3.55,0,*58
1514106371.06,28731,8.88,73166.3,-2.99,-3.59,-3.51,0,*55
1514106372.31,28732,8.88,73182.8,-2.99,-3.47,-3.47,0,*5E
1514106373.55,28733,8.94,73206.8,-2.99,-3.51,-3.47,0,*58
1514106374.79,28734,8.88,73196.8,-2.99,-3.47,-3.51,0,*5F
1514106376.04,28735,8.94,73136.3,-2.99,-3.51,-3.51,0,*59
1514106377.28,28736,8.88,73114.5,-2.99,-3.51,-3.51,0,*5A
1514106378.53,28737,8.94,73132.3,-2.99,-3.51,-3.51,0,*5B
1514106379.77,28738,8.88,73132.3,-2.99,-3.51,-3.51,0,*54
1514106381.02,28739,8.88,73158.3,-2.99,-3.51,-3.51,0,*55
1514106382.26,28740,8.88,73164.5,-2.99,-3.51,-3.51,0,*5B
1514106383.51,28741,8.88,73184.5,-2.99,-3.51,-3.51,0,*5A
1514106384.76,28742,8.88,73208.8,-2.99,-3.47,-3.51,0,*5E
1514106386.0,28743,8.88,73220.0,-2.99,-3.59,-3.51,0,*50
1514106387.25,28744,8.94,73232.3,-2.99,-3.51,-3.51,0,*5F
1514106388.49,28745,8.94,73216.3,-2.99,-3.59,-3.51,0,*56
1514106389.74,28746,8.88,73228.5,-2.99,-3.51,-3.51,0,*5D
1514106390.98,28747,8.88,73224.8,-2.99,-3.47,-3.51,0,*5B
1514106392.23,28748,8.94,73232.0,-2.99,-3.51,-3.47,0,*54
1514106393.47,28749,8.88,73196.3,-2.99,-3.51,-3.51,0,*52
1514106394.72,28750,8.88,73184.3,-2.99,-3.51,-3.59,0,*52
1514106395.96,28751,8.88,73210.3,-2.99,-3.51,-3.47,0,*5C
1514106397.21,28752,8.88,73208.3,-2.99,-3.51,-3.51,0,*58
1514106398.45,28753,8.88,73212.0,-2.99,-3.51,-3.47,0,*5E
1514106399.72,28754,8.88,73216.3,-3.01,-3.63,-3.55,0,*5B
1514106400.97,28755,8.88,73230.5,-2.99,-3.51,-3.51,0,*5F
1514106402.23,28756,8.88,73248.8,-3.01,-3.55,-3.63,0,*59
1514106403.5,28757,8.88,73232.3,-3.01,-3.55,-3.63,0,*58
1514106404.77,28758,8.88,73184.3,-3.01,-3.51,-3.55,0,*56
1514106406.02,28759,8.88,73180.5,-2.99,-3.51,-3.59,0,*5B
1514106407.26,28760,8.94,73186.3,-2.99,-3.51,-3.51,0,*59
1514106408.51,28761,8.88,73182.3,-2.99,-3.51,-3.59,0,*50
1514106409.76,28762,8.94,73188.8,-2.99,-3.51,-3.51,0,*5B
1514106411.02,28763,8.88,73198.0,-3.01,-3.55,-3.55,0,*5A
1514106412.29,28764,8.88,73192.0,-3.01,-3.55,-3.55,0,*5D
1514106413.55,28765,8.94,73194.0,-3.01,-3.67,-3.55,0,*5D
1514106414.8,28766,8.88,73192.0,-2.99,-3.63,-3.51,0,*5E
1514106416.05,28767,8.88,73194.8,-2.99,-3.51,-3.51,0,*5E
1514106417.29,28768,8.94,73202.5,-2.99,-3.51,-3.51,0,*51
1514106418.56,28769,8.94,73202.5,-3.01,-3.63,-3.55,0,*55
1514106419.83,28770,8.94,73196.0,-3.01,-3.63,-3.67,0,*5C
1514106421.1,28771,8.88,73194.8,-3.01,-3.55,-3.63,0,*5C
1514106422.37,28772,8.94,73206.8,-3.01,-3.63,-3.55,0,*5F
1514106423.61,28773,8.88,73222.8,-2.99,-3.59,-3.51,0,*53
1514106424.86,28774,8.88,73214.8,-2.99,-3.59,-3.59,0,*5C
1514106426.11,28775,8.88,73224.5,-2.99,-3.51,-3.51,0,*5D
1514106427.35,28776,8.88,73230.8,-2.99,-3.51,-3.51,0,*5E
1514106428.62,28777,8.88,73230.8,-3.01,-3.63,-3.55,0,*5A
1514106429.86,28778,8.88,73230.5,-3.03,-3.67,-3.63,0,*56
1514106431.11,28779,8.88,73218.8,-2.99,-3.59,-3.51,0,*59
1514106432.38,28780,8.94,73212.3,-3.01,-3.63,-3.55,0,*52
1514106433.63,28781,8.88,73212.3,-2.99,-3.59,-3.59,0,*56
1514106434.88,28782,8.94,73210.3,-2.99,-3.51,-3.59,0,*5D
1514106436.15,28783,8.88,73212.0,-3.01,-3.63,-3.63,0,*54
1514106437.42,28784,8.88,73216.8,-3.01,-3.63,-3.55,0,*56
1514106438.69,28785,8.88,73224.0,-3.01,-3.63,-3.63,0,*52
1514106439.96,28786,8.88,73226.5,-3.01,-3.63,-3.55,0,*54
1514106441.23,28787,8.88,73232.8,-3.01,-3.63,-3.55,0,*55
1514106442.49,28788,8.88,73236.0,-3.01,-3.67,-3.63,0,*5B
1514106443.76,28789,8.88,73234.8,-3.01,-3.55,-3.63,0,*5B
1514106445.03,28790,8.94,73242.0,-3.01,-3.63,-3.63,0,*56
1514106446.3,28791,8.88,73236.8,-3.01,-3.63,-3.63,0,*57
1514106447.57,28792,8.88,73240.0,-3.01,-3.63,-3.55,0,*51
1514106448.84,28793,8.94,73240.3,-3.01,-3.63,-3.63,0,*55
1514106450.08,28794,8.88,73230.8,-3.03,-3.67,-3.63,0,*54
1514106451.35,28795,8.88,73224.0,-3.01,-3.55,-3.63,0,*56
1514106452.62,28796,8.88,73216.8,-3.01,-3.63,-3.63,0,*50
1514106453.89,28797,8.88,73216.5,-3.01,-3.63,-3.55,0,*54
1514106455.13,28798,8.88,73218.8,-3.03,-3.55,-3.63,0,*59
1514106456.4,28799,8.94,73212.5,-3.01,-3.67,-3.63,0,*5B
1514106457.67,28800,8.88,73204.3,-3.01,-3.63,-3.63,0,*50
1514106458.93,28801,8.88,73222.5,-3.01,-3.67,-3.55,0,*50
1514106460.2,28802,8.94,73238.8,-3.01,-3.63,-3.63,0,*52
1514106461.45,28803,8.88,73236.5,-3.03,-3.67,-3.63,0,*55
1514106462.71,28804,8.88,73234.8,-3.01,-3.67,-3.55,0,*55
1514106463.96,28805,8.94,73228.8,-3.03,-3.63,-3.55,0,*52
1514106465.22,28806,8.88,73196.5,-3.01,-3.55,-3.55,0,*56
1514106466.49,28807,8.88,73206.3,-3.01,-3.63,-3.55,0,*52
1514106467.73,28808,8.94,73228.0,-3.03,-3.63,-3.55,0,*5F
1514106468.97,28809,8.94,73202.8,-3.03,-3.67,-3.63,0,*5F
1514106470.25,28810,8.94,73222.3,-3.01,-3.63,-3.63,0,*51
1514106471.51,28811,8.88,73216.8,-3.01,-3.67,-3.55,0,*51
1514106472.75,28812,8.94,73212.8,-3.03,-3.55,-3.55,0,*51
1514106474.0,28813,8.94,73214.5,-3.03,-3.63,-3.55,0,*55
1514106475.24,28814,8.88,73222.5,-3.03,-3.63,-3.55,0,*52
1514106476.51,28815,8.94,73226.5,-3.01,-3.63,-3.55,0,*51
1514106477.77,28816,8.88,73224.5,-3.01,-3.55,-3.63,0,*52
1514106479.04,28817,8.94,73218.5,-3.01,-3.55,-3.55,0,*56
1514106480.31,28818,8.88,73220.0,-3.01,-3.63,-3.55,0,*5C
1514106481.55,28819,8.94,73206.8,-3.03,-3.63,-3.63,0,*5A
1514106482.82,28820,8.94,73200.0,-3.01,-3.55,-3.55,0,*52
1514106484.06,28821,8.88,73190.0,-3.03,-3.63,-3.55,0,*54
1514106485.33,28822,8.94,73206.5,-3.01,-3.63,-3.55,0,*55
1514106486.6,28823,8.94,73204.8,-3.01,-3.63,-3.63,0,*51
1514106487.87,28824,8.88,73158.5,-3.01,-3.67,-3.55,0,*57
1514106489.13,28825,8.88,73152.0,-3.01,-3.55,-3.55,0,*57
1514106490.4,28826,8.94,73156.8,-3.01,-3.55,-3.55,0,*54
1514106491.64,28827,8.88,73182.0,-3.03,-3.63,-3.55,0,*52
1514106492.88,28828,8.88,73186.8,-3.03,-3.55,-3.55,0,*58
1514106494.15,28829,8.88,73190.3,-3.01,-3.55,-3.55,0,*5B
1514106495.4,28830,8.94,73160.8,-2.99,-3.51,-3.59,0,*5B
1514106496.64,28831,8.88,73130.8,-2.99,-3.51,-3.51,0,*52
1514106497.91,28832,8.88,73152.8,-3.01,-3.55,-3.63,0,*54
1514106499.18,28833,8.88,73140.3,-3.01,-3.63,-3.55,0,*55
1514106500.45,28834,8.94,73166.3,-3.01,-3.63,-3.55,0,*52
1514106501.72,28835,8.94,73182.3,-3.01,-3.63,-3.55,0,*53
1514106502.96,28836,8.94,73196.3,-3.03,-3.55,-3.55,0,*57
1514106504.22,28837,8.88,73208.3,-3.01,-3.55,-3.55,0,*54
1514106505.49,28838,8.88,73220.8,-3.01,-3.63,-3.55,0,*5E
1514106506.76,28839,8.94,73228.5,-3.01,-3.67,-3.55,0,*5B
1514106508.02,28840,8.88,73246.5,-3.01,-3.55,-3.55,0,*54
1514106509.3,28841,8.94,73254.8,-3.01,-3.51,-3.59,0,*5D
1514106510.57,28842,8.88,73252.8,-3.01,-3.63,-3.63,0,*56
1514106511.84,28843,8.94,73240.5,-3.01,-3.67,-3.55,0,*56
1514106513.09,28844,8.88,73216.3,-2.99,-3.63,-3.59,0,*59
1514106514.36,28845,8.94,73200.0,-3.01,-3.63,-3.55,0,*54
1514106515.61,28846,8.88,73194.0,-2.99,-3.51,-3.59,0,*5A
1514106516.87,28847,8.88,73170.0,-3.01,-3.67,-3.55,0,*52
1514106518.12,28848,8.94,73156.0,-3.03,-3.63,-3.55,0,*5B
1514106519.38,28849,8.94,73146.3,-3.01,-3.63,-3.55,0,*58
1514106520.63,28850,8.94,73206.5,-3.03,-3.63,-3.55,0,*52
1514106521.89,28851,8.94,73186.0,-3.01,-3.55,-3.55,0,*54
1514106523.14,28852,8.88,73206.0,-3.03,-3.63,-3.55,0,*50
1514106524.41,28853,8.94,73218.8,-3.01,-3.63,-3.55,0,*53
1514106525.65,28854,8.88,73222.3,-3.03,-3.63,-3.55,0,*56
1514106526.89,28855,8.88,73212.0,-3.03,-3.63,-3.63,0,*52
1514106528.14,28856,8.88,73200.3,-3.03,-3.63,-3.63,0,*51